EW4799 Weather Reports


time (UTC)temp
F
wind
direction
speed
knots
gust
knots
rain 1hr
in
rain 24hr
in
rain mn
in
humidity
%
barometer
mb
20260506044602 59 0 0.0 0.0 0.00 0.00 0.00 80 1016.2
20260506043051 59 0 0.0 0.0 0.00 0.00 0.00 79 1016.2
20260506041556 59 0 0.0 0.0 0.00 0.00 0.00 80 1016.2
20260506040051 59 0 0.0 0.0 0.00 0.00 0.00 79 1016.1
20260506034552 60 0 0.0 0.0 0.00 0.00 0.00 76 1015.8
20260506033052 62 0 0.0 0.0 0.00 0.00 0.00 73 1015.7
20260506031559 63 0 0.0 0.9 0.00 0.00 0.00 71 1015.5
20260506030113 64 0 0.0 0.9 0.00 0.00 0.00 69 1015.5
20260506024555 65 0 0.0 1.7 0.00 0.00 0.00 66 1015.5
20260506023056 66 186 0.0 3.5 0.00 0.00 0.00 63 1015.4
20260506021554 69 0 0.0 2.6 0.00 0.00 0.00 59 1015.4
20260506020051 70 149 0.0 2.6 0.00 0.00 0.00 56 1015.4
20260506014600 71 176 0.0 2.6 0.00 0.00 0.00 55 1015.4
20260506013052 71 177 0.0 3.5 0.00 0.00 0.00 55 1015.4
20260506011557 72 0 0.0 3.5 0.00 0.00 0.00 54 1015.5
20260506010054 71 191 0.0 3.5 0.00 0.00 0.00 54 1015.4
20260506004624 72 0 0.9 4.3 0.00 0.00 0.00 54 1015.5
20260506003053 71 167 0.9 3.5 0.00 0.00 0.00 54 1015.6
20260506001556 71 32 0.9 4.3 0.00 0.00 0.00 55 1015.8
20260506000050 70 0 0.0 2.6 0.00 0.00 0.00 58 1016.0
20260505234611 70 166 0.0 2.6 0.00 0.00 0.00 56 1016.1
20260505233051 70 0 0.9 4.3 0.00 0.00 0.00 58 1016.3
20260505231600 69 195 0.9 3.5 0.00 0.00 0.00 61 1016.3
20260505230055 66 71 0.9 3.5 0.00 0.00 0.00 66 1016.4
20260505224552 64 201 0.9 2.6 0.00 0.00 0.00 67 1016.4
20260505223102 63 170 1.7 4.3 0.00 0.00 0.00 68 1016.6
20260505221607 63 148 0.9 2.6 0.00 0.00 0.00 70 1016.7
20260505220133 63 185 0.9 2.6 0.00 0.00 0.00 71 1016.8
20260505214614 62 215 0.9 3.5 0.00 0.00 0.00 71 1016.9
20260505213100 62 200 0.0 1.7 0.00 0.00 0.00 72 1016.9
20260505211611 61 0 0.0 2.6 0.00 0.00 0.00 73 1016.9
20260505210058 61 171 0.0 2.6 0.00 0.00 0.00 74 1016.9
20260505204558 60 183 0.9 2.6 0.00 0.00 0.00 74 1017.2
20260505203059 60 179 0.0 2.6 0.00 0.00 0.00 75 1017.2
20260505201602 60 210 0.9 3.5 0.00 0.00 0.00 74 1017.1
20260505194603 59 162 0.9 2.6 0.00 0.00 0.00 76 1017.2
20260505193052 59 192 0.9 2.6 0.00 0.00 0.00 76 1017.2
20260505191556 59 202 0.0 2.6 0.00 0.00 0.00 77 1017.1
20260505184550 58 184 0.9 3.5 0.00 0.00 0.00 77 1017.0
20260505183053 58 165 0.9 2.6 0.00 0.00 0.00 78 1017.0
20260505181553 58 230 0.0 2.6 0.00 0.00 0.00 79 1017.0
20260505174549 58 171 0.0 2.6 0.00 0.00 0.00 79 1017.0
20260505173052 58 0 0.0 2.6 0.00 0.00 0.00 79 1017.0
20260505171551 58 193 0.0 2.6 0.00 0.00 0.00 80 1016.8
20260505170049 57 211 0.0 1.7 0.00 0.00 0.00 79 1016.8
20260505164633 57 0 0.0 1.7 0.00 0.00 0.00 80 1016.7
20260505163059 57 0 0.0 1.7 0.00 0.00 0.00 80 1016.7
20260505161558 57 0 0.9 2.6 0.00 0.00 0.00 80 1016.7
20260505160105 57 198 0.0 2.6 0.00 0.00 0.00 81 1016.5
20260505153056 56 174 0.9 3.5 0.00 0.00 0.00 81 1016.5
20260505151552 56 0 0.0 1.7 0.00 0.00 0.00 81 1016.3
20260505124558 55 189 1.7 5.2 0.00 0.00 0.00 82 1014.8
20260505123049 55 201 0.9 4.3 0.00 0.00 0.00 83 1014.7
20260505121548 55 223 0.9 2.6 0.00 0.00 0.00 83 1014.7
20260505120056 55 201 0.9 3.5 0.00 0.00 0.00 83 1014.7
20260505114556 55 29 0.0 2.6 0.00 0.00 0.00 83 1014.6
20260505113055 55 199 0.0 3.5 0.00 0.00 0.00 83 1014.5
20260505111556 55 171 0.0 3.5 0.00 0.00 0.00 83 1014.3
20260505110104 55 221 0.9 4.3 0.00 0.00 0.00 83 1014.5
20260505101600 55 0 1.7 5.2 0.00 0.00 0.00 84 1014.1
20260505100056 55 193 0.9 3.5 0.00 0.00 0.00 84 1014.1
20260505094555 55 190 0.0 2.6 0.00 0.00 0.00 84 1013.9
20260505093052 55 186 0.9 5.2 0.00 0.00 0.00 84 1013.9
20260505091606 55 172 0.0 4.3 0.00 0.00 0.00 84 1013.6
20260505090056 55 175 0.9 3.5 0.00 0.00 0.00 83 1013.6
20260505084552 55 187 0.9 3.5 0.00 0.00 0.00 83 1013.3
20260505083053 56 333 0.9 3.5 0.00 0.00 0.00 82 1013.3
20260505081554 56 200 0.9 3.5 0.00 0.00 0.00 82 1013.3
20260505080103 56 226 0.0 1.7 0.00 0.00 0.00 82 1013.2
20260505074553 56 0 0.0 3.5 0.00 0.00 0.00 81 1012.9
20260505073054 57 0 0.9 4.3 0.00 0.00 0.00 81 1012.9
20260505071548 57 205 0.0 3.5 0.00 0.00 0.00 81 1012.8
20260505070055 57 108 0.0 3.5 0.00 0.00 0.00 80 1012.7
20260505064550 58 139 0.0 2.6 0.00 0.00 0.00 79 1012.7
20260505063108 58 205 0.0 3.5 0.00 0.00 0.00 78 1012.6
20260505061548 59 198 0.0 4.3 0.00 0.00 0.00 77 1012.4
20260505060056 60 183 0.9 3.5 0.00 0.00 0.00 76 1012.1
20260505054608 60 196 0.0 3.5 0.00 0.00 0.00 74 1012.2
20260505053058 62 212 0.9 5.2 0.00 0.00 0.00 72 1012.1
20260505051550 63 182 0.9 2.6 0.00 0.00 0.00 70 1011.9